[[{"header":{"parameterUnit":"m.s-1","parameterCategory":1,"la1":30.2991,"la2":30.254,"lo1":-89.0895,"lo2":-89.0444,"dy":0.0017,"dx":0.0017,"nx":28,"ny":28,"refTime":"2025-08-08T03:00:00:Z","depth":0,"parameterNumber":2,"parameterNumberName":"U-component_of_WINDS"},"data":[0,0,0,0,0,0,0,0,0,0,0,0,0,0,0,0,0,0,0,0,0,0,0,0,0,0,0,0,0,0,0,0,0,0,0,0,0,0,0,0,0,0,0,0,0,0,0,0,0,0,0,0,0,0,0,0,0,0,-7.1787,-7.1786,0,-7.1753,-7.1752,-7.1752,-7.1582,-7.1578,-7.1574,-7.157,-7.1538,-7.1541,-7.1544,0,0,0,0,0,0,0,0,0,0,0,0,0,-7.1708,-7.1711,-7.1787,-7.1786,-7.1786,-7.1753,-7.1752,-7.1752,-7.1583,-7.1578,-7.1573,-7.1569,-7.1537,-7.154,-7.1544,0,0,0,0,0,0,0,0,0,0,0,0,0,-7.1715,-7.1711,-7.1787,-7.1698,-7.1689,-7.1753,-7.1752,-7.1752,-7.1584,-7.1578,-7.1572,-7.1566,-7.1536,-7.154,-7.1544,-7.1692,0,0,-7.1558,-7.1559,0,0,0,0,0,0,0,0,-7.1715,-7.1719,-7.1711,-7.1704,-7.1695,-7.1665,-7.1713,-7.1732,-7.1586,-7.1624,-7.157,-7.1563,-7.1585,-7.1585,-7.1592,-7.169,-7.1689,-7.1558,-7.1561,-7.1562,-7.1564,0,0,0,0,0,0,0,-7.1715,-7.1719,-7.1773,-7.1711,-7.1701,-7.166,-7.1655,-7.1715,-7.1639,-7.162,-7.1608,-7.1606,-7.158,-7.1589,-7.159,-7.1689,-7.1558,-7.1562,-7.1564,-7.1566,-7.1906,-7.1912,0,0,0,0,0,0,-7.1727,-7.172,-7.1774,-7.1772,-7.169,-7.1667,-7.166,-7.1681,-7.1638,-7.1626,-7.1611,-7.1598,-7.1584,-7.1585,-7.1589,-7.1757,-7.1562,-7.1567,-7.1569,-7.19,-7.1908,-7.1915,0,0,0,0,0,0,-7.1726,-7.1733,-7.1776,-7.1743,-7.1745,-7.1674,-7.1699,-7.1684,-7.1692,-7.1631,-7.1617,-7.1634,-7.1579,-7.1582,-7.1667,-7.1754,-7.1568,-7.1572,-7.1892,-7.1902,-7.1911,-7.2097,0,0,0,0,0,0,-7.1724,-7.1734,-7.1788,-7.1745,-7.1747,-7.1855,-7.1704,-7.1687,-7.17,-7.1682,-7.1649,-7.1637,-7.1575,-7.1662,-7.1672,-7.1756,-7.1576,-7.1884,-7.1897,-7.1908,-7.2083,-7.2112,-7.2137,0,0,0,0,0,-7.1722,-7.1842,-7.1792,-7.1799,-7.1814,-7.186,-7.1861,-7.1786,-7.1707,-7.1762,-7.1723,-7.1638,-7.1744,-7.1672,-7.1682,-7.1769,-7.1878,-7.1893,-7.1907,-7.207,-7.2106,-7.2136,0,0,0,0,0,0,-7.1898,-7.1835,-7.1778,-7.1888,-7.1881,-7.1831,-7.1897,-7.1826,-7.1841,-7.1825,-7.1732,-7.1726,-7.1824,-7.1805,-7.1727,-7.191,-7.1797,-7.1814,-7.1918,-7.1951,-7.1977,-7.1978,-7.1579,0,0,0,0,0,-7.195,-7.1991,-7.1935,-7.2037,-7.2036,-7.1969,-7.1986,-7.1929,-7.1917,-7.1913,-7.1881,-7.1874,-7.1905,-7.1927,-7.1953,-7.2081,-7.207,-7.2146,-7.2173,-7.2195,-7.221,-7.2276,-7.2308,-7.1962,-7.1962,-7.1962,0,0,-7.2056,-7.2027,-7.2059,-7.2072,-7.2059,-7.2105,-7.1966,-7.2021,-7.2054,-7.1922,-7.1999,-7.1976,-7.1962,-7.2069,-7.2114,-7.2056,-7.2304,-7.2214,-7.2232,-7.2234,-7.2294,-7.2327,-7.2356,-7.1972,-7.197,-7.1969,0,0,-7.2273,-7.2257,-7.2339,-7.233,-7.2313,-7.2267,-7.2288,-7.2249,-7.2228,-7.2305,-7.2206,-7.2246,-7.2302,-7.2295,-7.23,-7.2518,-7.2441,-7.253,-7.2669,-7.2734,-7.2762,-7.2785,-7.2861,-7.289,-7.2546,-7.2546,-7.2546,0,-7.2408,-7.2472,-7.2391,-7.2452,-7.2461,-7.2344,-7.2427,-7.2422,-7.2415,-7.2424,-7.236,-7.2427,-7.241,-7.2513,-7.2567,-7.2575,-7.2595,-7.2531,-7.2764,-7.2787,-7.2808,-7.2879,-7.2909,-7.2557,-7.2556,-7.2554,-7.2553,0,-7.2638,-7.2685,-7.2755,-7.2749,-7.2766,-7.2839,-7.2769,-7.2797,-7.274,-7.2702,-7.2781,-7.2757,-7.2775,-7.2796,-7.2742,-7.2893,-7.2857,-7.278,-7.2664,-7.2853,-7.2918,-7.2945,-7.2572,-7.2568,-7.2565,-7.2562,0,0,-7.2962,-7.2913,-7.2939,-7.2935,-7.2909,-7.2944,-7.3012,-7.3029,-7.3054,-7.3055,-7.3108,-7.316,-7.3089,-7.3094,-7.3038,-7.3096,-7.3269,-7.3011,-7.3009,-7.3058,-7.3433,-7.3489,-7.3522,-7.3219,-7.3224,-7.3228,-7.3433,0,-7.3168,-7.3279,-7.3209,-7.3331,-7.3373,-7.3264,-7.3323,-7.3315,-7.3282,-7.3313,-7.3277,-7.3314,-7.3218,-7.3221,-7.3273,-7.3237,-7.3342,-7.3222,-7.3268,-7.327,-7.3271,-7.3556,-7.3615,-7.381,-7.3459,-7.3463,-7.3466,0,-7.3422,-7.3432,-7.3559,-7.3524,-7.3539,-7.3594,-7.3604,-7.3636,-7.3624,-7.3596,-7.3604,-7.3534,-7.3599,-7.3488,-7.3576,-7.3496,-7.3511,-7.3497,-7.3503,-7.3501,-7.3377,-7.356,-7.387,-7.3898,-7.3506,-7.3503,-7.35,0,-7.3642,-7.3689,-7.377,-7.377,-7.3733,-7.3774,-7.3761,-7.3743,-7.3758,-7.3769,-7.3777,-7.3796,-7.3806,-7.3823,-7.376,-7.3685,-7.3857,-7.374,-7.3835,-7.3837,-7.3873,-7.3871,-7.4187,-7.3889,-7.3888,-7.3888,-7.3887,0,-7.3878,-7.3959,-7.3868,-7.3918,-7.4006,-7.3927,-7.4017,-7.3992,-7.3978,-7.4021,-7.393,-7.3973,-7.3889,-7.3925,-7.3877,-7.3957,-7.3963,-7.3942,-7.3927,-7.3948,-7.395,-7.3954,-7.3938,-7.3895,-7.3894,-7.3892,-7.3891,0,-7.4137,-7.408,-7.4161,-7.412,-7.4111,-7.4178,-7.4143,-7.4188,-7.415,-7.4207,-7.4215,-7.4156,-7.4193,-7.4133,-7.4163,-7.4131,-7.4242,-7.4208,-7.4245,-7.4234,-7.4331,-7.4322,-7.4658,-7.4697,-7.4377,-7.438,-7.4383,0,-7.4289,-7.4349,-7.4315,-7.4337,-7.4328,-7.4366,-7.4381,-7.4307,-7.4326,-7.4318,-7.4365,-7.4394,-7.4412,-7.4477,-7.4437,-7.446,-7.4424,-7.4541,-7.4427,-7.4446,-7.4423,-7.4419,-7.4424,-7.4563,-7.4567,-7.457,-7.4573,0,-7.4565,-7.4534,-7.4559,-7.4575,-7.4595,-7.4604,-7.4607,-7.4631,-7.4552,-7.4579,-7.4615,-7.463,-7.4661,-7.4691,-7.4704,-7.4691,-7.462,-7.461,-7.4632,-7.4652,-7.467,-7.4659,-7.4305,-7.4601,-7.4598,-7.4596,-7.4595,-7.4594,-7.4774,-7.4822,-7.4805,-7.4836,-7.483,-7.4835,-7.4874,-7.4842,-7.487,-7.4888,-7.4844,-7.4891,-7.4879,-7.4889,-7.4885,-7.4921,-7.4869,-7.4903,-7.4911,-7.4919,-7.4933,-7.4668,-7.4924,-7.4923,-7.4922,-7.4921,-7.492,0,-7.5043,-7.5027,-7.5056,-7.5062,-7.5087,-7.5018,-7.5018,-7.5043,-7.5085,-7.508,-7.5101,-7.5143,-7.5172,-7.5136,-7.5158,-7.5195,-7.5162,-7.5203,-7.5198,-7.5196,-7.4979,-7.4956,-7.5229,-7.5229,-7.5228,-7.5228,-7.5228,-7.5228,-7.5185,-7.5262,-7.523,-7.5304,-7.5287,-7.5332,-7.5337,-7.5342,-7.5337,-7.5387,-7.5411,-7.5387,-7.537,-7.5391,-7.5415,-7.5403,-7.5415,-7.5467,-7.5444,-7.5241,-7.5211,-7.5182,-7.516,-7.5471,-7.5471,-7.5657,-7.5659,-7.566]},{"header":{"parameterUnit":"m.s-1","parameterCategory":1,"la1":30.2991,"la2":30.254,"lo1":-89.0895,"lo2":-89.0444,"dy":0.0017,"dx":0.0017,"nx":28,"ny":28,"refTime":"2025-08-08T03:00:00:Z","depth":0,"parameterNumber":3,"parameterNumberName":"V-component_of_WINDS"},"data":[0,0,0,0,0,0,0,0,0,0,0,0,0,0,0,0,0,0,0,0,0,0,0,0,0,0,0,0,0,0,0,0,0,0,0,0,0,0,0,0,0,0,0,0,0,0,0,0,0,0,0,0,0,0,0,0,0,0,1.4343,1.4344,0,1.4428,1.4429,1.443,1.4547,1.4549,1.4551,1.4552,1.4633,1.4633,1.4634,0,0,0,0,0,0,0,0,0,0,0,0,0,1.4275,1.4276,1.4343,1.4344,1.4345,1.4428,1.4429,1.443,1.4546,1.4549,1.4551,1.4553,1.4633,1.4633,1.4634,0,0,0,0,0,0,0,0,0,0,0,0,0,1.4326,1.4276,1.4343,1.4413,1.442,1.4427,1.4429,1.443,1.4546,1.4549,1.4552,1.4554,1.4633,1.4633,1.4634,1.4577,0,0,1.4635,1.4635,0,0,0,0,0,0,0,0,1.4323,1.4329,1.4402,1.4408,1.4416,1.448,1.4435,1.4479,1.4545,1.4498,1.4552,1.4556,1.4579,1.4584,1.4593,1.458,1.4584,1.4635,1.4635,1.4636,1.4636,0,0,0,0,0,0,0,1.4319,1.4326,1.4376,1.4403,1.4412,1.4438,1.4449,1.4443,1.452,1.4502,1.4511,1.452,1.4584,1.4593,1.4596,1.4585,1.4635,1.4635,1.4636,1.4636,1.4526,1.4523,0,0,0,0,0,0,1.4306,1.4322,1.4374,1.4379,1.4376,1.4437,1.4449,1.4456,1.4521,1.4534,1.4517,1.4525,1.459,1.4596,1.4599,1.4534,1.4636,1.4636,1.4636,1.4529,1.4525,1.4522,0,0,0,0,0,0,1.4304,1.431,1.437,1.4353,1.4363,1.4435,1.4442,1.4456,1.4466,1.4532,1.4546,1.4512,1.4593,1.4599,1.4581,1.4539,1.4636,1.4637,1.4533,1.4528,1.4524,1.4404,0,0,0,0,0,0,1.4302,1.4309,1.4289,1.4352,1.4363,1.4352,1.444,1.4456,1.4467,1.4478,1.4532,1.4543,1.4596,1.458,1.4581,1.4541,1.4637,1.4537,1.4531,1.4525,1.4412,1.4396,1.4382,0,0,0,0,0,1.4299,1.4251,1.4288,1.4293,1.4341,1.4349,1.4356,1.4419,1.4463,1.4443,1.4485,1.4542,1.4544,1.4577,1.458,1.4539,1.454,1.4532,1.4525,1.4419,1.4399,1.4382,0,0,0,0,0,0,1.418,1.4261,1.4302,1.4274,1.4304,1.4369,1.4346,1.4396,1.4413,1.4423,1.4499,1.451,1.4481,1.4509,1.4545,1.4485,1.455,1.4543,1.4468,1.445,1.4435,1.4427,1.4637,0,0,0,0,0,1.4151,1.4154,1.4224,1.4191,1.4205,1.4272,1.4278,1.4325,1.4358,1.4371,1.4413,1.4441,1.4448,1.4451,1.4462,1.4418,1.4429,1.4391,1.4376,1.4363,1.4355,1.433,1.4313,1.4498,1.4498,1.4498,0,0,1.409,1.4135,1.4131,1.4169,1.4198,1.4195,1.4282,1.4277,1.4276,1.437,1.4355,1.4386,1.4423,1.4391,1.4379,1.4413,1.4306,1.4354,1.4343,1.4342,1.4321,1.4303,1.4287,1.4493,1.4494,1.4495,0,0,1.3977,1.4013,1.3989,1.4016,1.4059,1.4105,1.4098,1.4156,1.4181,1.4168,1.4238,1.4236,1.4248,1.427,1.4283,1.4178,1.4228,1.4179,1.4099,1.4074,1.4059,1.4046,1.4005,1.3989,1.4172,1.4171,1.4171,0,1.3895,1.3897,1.3969,1.3959,1.3972,1.406,1.4034,1.4056,1.41,1.4105,1.4144,1.4158,1.419,1.4162,1.4136,1.4145,1.4138,1.4171,1.4056,1.4044,1.4033,1.3994,1.3978,1.4165,1.4165,1.4166,1.4167,0,1.3792,1.3792,1.3768,1.3808,1.3819,1.3801,1.3867,1.3869,1.3914,1.3954,1.3938,1.3979,1.3998,1.3995,1.4039,1.3973,1.3993,1.4042,1.4108,1.4007,1.3972,1.3958,1.4155,1.4157,1.4159,1.4161,0,0,1.3605,1.3687,1.3676,1.3694,1.3748,1.3748,1.3733,1.3753,1.3751,1.3778,1.3765,1.3772,1.3818,1.3832,1.388,1.3858,1.3767,1.391,1.3912,1.3879,1.3692,1.3651,1.3633,1.3803,1.38,1.3798,1.3688,0,1.35,1.348,1.3544,1.3507,1.3506,1.3588,1.3575,1.3605,1.3642,1.3644,1.3685,1.3687,1.375,1.3758,1.3741,1.3782,1.373,1.3791,1.3787,1.3786,1.3771,1.3616,1.3573,1.3467,1.3675,1.3673,1.3671,0,1.3374,1.3395,1.3358,1.3412,1.3414,1.3401,1.3423,1.3426,1.346,1.3488,1.3504,1.3559,1.3545,1.3611,1.359,1.363,1.3633,1.3652,1.365,1.3648,1.3719,1.3606,1.3435,1.3417,1.3651,1.3652,1.3654,0,1.3237,1.3256,1.3236,1.3249,1.3313,1.3301,1.3326,1.3364,1.3371,1.339,1.3395,1.3411,1.3419,1.3429,1.3486,1.3529,1.3457,1.3529,1.3477,1.3475,1.3455,1.3454,1.3277,1.3463,1.3463,1.3463,1.3464,0,1.311,1.3083,1.3174,1.3161,1.3132,1.3205,1.3174,1.3207,1.324,1.3232,1.3306,1.3297,1.3375,1.3373,1.3418,1.3391,1.3396,1.3415,1.3426,1.3406,1.3403,1.3406,1.3413,1.3459,1.346,1.3461,1.3461,0,1.295,1.3011,1.2993,1.3055,1.307,1.3045,1.3097,1.3085,1.3128,1.3117,1.3119,1.3183,1.3185,1.3244,1.3259,1.3289,1.3242,1.3269,1.323,1.3237,1.318,1.3183,1.2995,1.2973,1.3176,1.3174,1.3173,0,1.2864,1.2845,1.2904,1.2905,1.2928,1.2929,1.2936,1.3007,1.3011,1.3049,1.3032,1.304,1.305,1.3049,1.3096,1.3106,1.3132,1.3065,1.3133,1.3112,1.3125,1.3124,1.312,1.3049,1.3047,1.3045,1.3043,0,1.2702,1.2733,1.2742,1.2761,1.2768,1.2786,1.2808,1.2804,1.2882,1.2882,1.2886,1.2894,1.2909,1.2914,1.2933,1.2957,1.301,1.3022,1.3009,1.2986,1.2962,1.297,1.3186,1.3025,1.3026,1.3028,1.3029,1.3029,1.2574,1.2559,1.2598,1.2605,1.263,1.2649,1.264,1.2681,1.2686,1.2704,1.2746,1.2742,1.2775,1.2806,1.2825,1.2821,1.2854,1.2837,1.2832,1.2826,1.2813,1.2967,1.2825,1.2826,1.2826,1.2827,1.2827,0,1.2412,1.2442,1.2448,1.2476,1.2481,1.2535,1.2562,1.2561,1.2557,1.2584,1.2593,1.2595,1.2601,1.2648,1.2658,1.2646,1.267,1.2646,1.2645,1.2648,1.2785,1.2792,1.2625,1.2625,1.2625,1.2625,1.2625,1.2625,1.2329,1.2306,1.2341,1.233,1.236,1.2357,1.2367,1.2384,1.2406,1.2405,1.2411,1.2443,1.2476,1.249,1.2496,1.251,1.2508,1.2474,1.2495,1.262,1.264,1.2658,1.2665,1.2474,1.2474,1.2359,1.2358,1.2357]}]]